OK1CMJ-5 Weather Reports


time (UTC)temp
F
wind
direction
speed
knots
gust
knots
rain 1hr
in
rain 24hr
in
rain mn
in
humidity
%
barometer
mb
20260510112348 71 336 1.7 6.1 0.00 0.00 0.00 10 1014.5
20260510111448 70 323 1.7 5.2 0.00 0.00 0.00 10 1014.7
20260510110548 70 154 1.7 6.1 0.00 0.00 0.00 10 1014.9
20260510105648 70 51 1.7 7.0 0.00 0.00 0.00 10 1014.8
20260510104748 69 104 1.7 4.3 0.00 0.00 0.00 10 1015.0
20260510103848 68 104 1.7 7.0 0.00 0.00 0.00 10 1015.2
20260510102948 69 125 1.7 6.1 0.00 0.00 0.00 12 1015.3
20260510102048 69 126 2.6 7.0 0.00 0.00 0.00 12 1015.4
20260510101148 68 114 1.7 4.3 0.00 0.00 0.00 13 1015.3
20260510100248 69 99 1.7 3.5 0.00 0.00 0.00 12 1015.4
20260510095348 69 133 1.7 5.2 0.00 0.00 0.00 13 1015.7
20260510094448 68 140 0.9 4.3 0.00 0.00 0.00 14 1015.5
20260510093548 67 111 1.7 4.3 0.00 0.00 0.00 16 1015.7
20260510092648 67 117 0.9 7.0 0.00 0.00 0.00 16 1015.7
20260510091748 67 149 3.5 7.0 0.00 0.00 0.00 15 1015.8
20260510085948 66 95 1.7 4.3 0.00 0.00 0.00 18 1016.1
20260510085048 67 64 0.9 3.5 0.00 0.00 0.00 15 1016.1
20260510084148 66 174 0.0 7.0 0.00 0.00 0.00 17 1016.4
20260510083248 65 129 0.9 7.0 0.00 0.00 0.00 17 1016.3
20260510082348 66 228 0.9 4.3 0.00 0.00 0.00 15 1016.3
20260510081448 65 199 1.7 4.3 0.00 0.00 0.00 17 1016.4
20260510080548 65 325 1.7 3.5 0.00 0.00 0.00 17 1016.5
20260510075648 65 321 0.9 2.6 0.00 0.00 0.00 17 1016.6
20260510074748 64 181 1.7 3.5 0.00 0.00 0.00 18 1016.7
20260510073848 63 263 1.7 4.3 0.00 0.00 0.00 18 1016.7
20260510072948 63 7 0.9 4.3 0.00 0.00 0.00 18 1016.7
20260510072048 62 253 0.9 4.3 0.00 0.00 0.00 20 1016.8
20260510071148 62 297 0.9 3.5 0.00 0.00 0.00 23 1017.0
20260510070248 60 310 0.0 5.2 0.00 0.00 0.00 24 1017.0
20260510065348 60 146 0.9 4.3 0.00 0.00 0.00 23 1017.0
20260510064448 61 154 1.7 4.3 0.00 0.00 0.00 22 1017.0
20260510061748 60 330 0.9 3.5 0.00 0.00 0.00 27 1017.2
20260510060848 61 314 0.0 1.7 0.00 0.00 0.00 28 1017.6
20260510055948 59 80 0.0 2.6 0.00 0.00 0.00 36 1017.4
20260510055048 58 120 1.7 3.5 0.00 0.00 0.00 35 1017.5
20260510053248 58 1 1.7 2.6 0.00 0.00 0.00 38 1017.7
20260510052347 58 1 0.9 1.7 0.00 0.00 0.00 46 1017.8
20260510051447 57 353 0.0 1.7 0.00 0.00 0.00 63 1017.9
20260510050548 56 314 0.9 1.7 0.00 0.00 0.00 82 1017.8
20260510045648 54 0 0.0 0.0 0.00 0.00 0.00 99 1017.8
20260510044748 51 314 0.0 0.9 0.00 0.00 0.00 99 1017.8
20260510043848 48 314 0.0 0.9 0.00 0.00 0.00 99 1017.7
20260510042947 46 314 0.0 0.9 0.00 0.00 0.00 99 1017.9
20260510042047 44 314 0.0 0.9 0.00 0.00 0.00 99 1017.8
20260510041147 42 314 0.0 0.9 0.00 0.00 0.00 99 1017.7
20260510040247 39 0 0.0 0.0 0.00 0.00 0.00 97 1017.7
20260510034447 36 1 0.0 0.9 0.00 0.00 0.00 94 1017.8
20260510033548 35 1 0.0 0.9 0.00 0.00 0.00 93 1017.8
20260510032647 35 1 0.0 0.9 0.00 0.00 0.00 93 1017.8
20260510031747 36 0 0.0 0.0 0.00 0.00 0.00 92 1017.9
20260510030848 36 1 0.0 0.9 0.00 0.00 0.00 92 1017.9
20260510025948 36 1 0.0 0.9 0.00 0.00 0.00 92 1018.0
20260510025047 36 1 0.0 0.9 0.00 0.00 0.00 91 1018.0
20260510023247 36 1 0.0 0.9 0.00 0.00 0.00 91 1018.1
20260510021447 36 1 0.0 0.9 0.00 0.00 0.00 90 1018.0
20260510015648 36 0 0.0 0.0 0.00 0.00 0.00 89 1017.9
20260510014747 37 0 0.0 0.0 0.00 0.00 0.00 89 1018.2
20260510013848 37 331 0.0 0.9 0.00 0.00 0.00 89 1018.2
20260510012047 37 1 0.0 0.9 0.00 0.00 0.00 88 1018.3
20260510011147 37 314 0.0 0.9 0.00 0.00 0.00 88 1018.5
20260510010247 37 335 0.0 1.7 0.00 0.00 0.00 86 1018.6
20260510005347 37 349 0.0 0.9 0.00 0.00 0.00 86 1018.6
20260510004447 38 234 0.0 1.7 0.00 0.00 0.00 86 1018.6
20260510003548 38 225 0.0 1.7 0.00 0.00 0.00 85 1018.6
20260510001747 38 225 0.0 0.9 0.00 0.00 0.00 84 1018.6
20260510000847 38 225 0.0 0.9 0.00 0.00 0.00 84 1018.8
20260509235948 38 225 0.0 0.9 0.00 0.00 0.00 83 1018.9
20260509235047 39 221 0.0 1.7 0.00 0.00 0.00 83 1019.0
20260509234147 39 225 0.0 1.7 0.00 0.00 0.00 82 1019.2
20260509233247 39 225 0.0 0.9 0.00 0.00 0.00 82 1019.3
20260509232347 39 225 0.0 1.7 0.00 0.00 0.00 82 1019.4
20260509231447 39 225 0.0 1.7 0.00 0.00 0.00 81 1019.5
20260509230547 39 225 0.0 1.7 0.00 0.00 0.00 79 1019.6
20260509224748 39 225 0.0 1.7 0.00 0.00 0.00 78 1019.7
20260509223847 40 225 0.0 0.9 0.00 0.00 0.00 77 1019.8
20260509222947 40 225 0.0 1.7 0.00 0.00 0.00 77 1019.7
20260509222047 40 225 0.0 1.7 0.00 0.00 0.00 76 1019.7
20260509221147 40 314 0.0 0.9 0.00 0.00 0.00 75 1019.7
20260509220247 41 314 0.0 1.7 0.00 0.00 0.00 74 1019.6
20260509215347 41 315 0.0 1.7 0.00 0.00 0.00 74 1019.7
20260509214447 41 315 0.0 1.7 0.00 0.00 0.00 73 1019.6
20260509213547 41 314 0.0 1.7 0.00 0.00 0.00 72 1019.7
20260509212647 42 314 0.0 1.7 0.00 0.00 0.00 71 1019.7
20260509211747 42 314 0.0 1.7 0.00 0.00 0.00 70 1019.8
20260509210848 42 314 0.0 1.7 0.00 0.00 0.00 69 1020.1
20260509205947 42 314 0.0 0.9 0.00 0.00 0.00 68 1019.9
20260509205047 43 335 0.0 1.7 0.00 0.00 0.00 68 1019.9
20260509204147 43 338 0.0 1.7 0.00 0.00 0.00 67 1019.9
20260509203247 43 325 0.0 1.7 0.00 0.00 0.00 66 1019.9
20260509201447 44 314 0.0 1.7 0.00 0.00 0.00 66 1019.7
20260509200547 45 314 0.0 1.7 0.00 0.00 0.00 62 1019.8
20260509195647 45 315 0.0 1.7 0.00 0.00 0.00 61 1019.9
20260509194747 46 314 0.0 1.7 0.00 0.00 0.00 55 1019.7
20260509192047 49 9 0.0 1.7 0.00 0.00 0.00 45 1019.8
20260509191147 50 90 0.0 0.9 0.00 0.00 0.00 44 1019.6
20260509190247 51 90 0.0 1.7 0.00 0.00 0.00 42 1019.4
20260509184447 52 135 0.0 1.7 0.00 0.00 0.00 40 1019.2
20260509183547 53 0 0.0 0.0 0.00 0.00 0.00 38 1019.2
20260509182647 53 135 0.0 1.7 0.00 0.00 0.00 37 1018.9
20260509180848 55 135 0.0 1.7 0.00 0.00 0.00 35 1019.0
20260509175948 56 135 0.0 3.5 0.00 0.00 0.00 34 1018.8
20260509175048 57 255 1.7 3.5 0.00 0.00 0.00 33 1019.0
20260509174147 57 44 0.9 3.5 0.00 0.00 0.00 32 1018.9
20260509173247 58 61 1.7 5.2 0.00 0.00 0.00 31 1018.9
20260509171447 59 26 0.9 6.1 0.00 0.00 0.00 27 1019.0
20260509170547 60 21 0.9 7.0 0.00 0.00 0.00 25 1019.2
20260509165647 62 61 1.7 6.1 0.00 0.00 0.00 23 1019.0
20260509164747 64 111 1.7 7.0 0.00 0.00 0.00 20 1018.9
20260509161147 63 1 1.7 5.2 0.00 0.00 0.00 23 1019.2
20260509160247 62 358 1.7 7.8 0.00 0.00 0.00 23 1019.3
20260509154447 66 64 1.7 7.0 0.00 0.00 0.00 17 1019.3
20260509153547 67 95 3.5 7.8 0.00 0.00 0.00 16 1019.2
20260509152647 67 70 2.6 6.1 0.00 0.00 0.00 15 1019.3
20260509151747 66 97 3.5 6.1 0.00 0.00 0.00 18 1019.1
20260509150847 62 314 0.9 2.6 0.00 0.00 0.00 26 1019.2
20260509145947 62 308 0.9 4.3 0.00 0.00 0.00 26 1019.1
20260509145047 63 28 1.7 3.5 0.00 0.00 0.00 21 1019.1
20260509144147 65 15 2.6 6.1 0.00 0.00 0.00 20 1019.1
20260509143247 65 49 2.6 6.1 0.00 0.00 0.00 20 1019.1
20260509142347 64 74 0.0 4.3 0.00 0.00 0.00 21 1019.4
20260509141447 64 105 0.0 4.3 0.00 0.00 0.00 22 1019.4
20260509140547 65 80 1.7 5.2 0.00 0.00 0.00 20 1019.4
20260509135647 67 80 1.7 5.2 0.00 0.00 0.00 19 1019.5
20260509134747 66 86 0.9 7.0 0.00 0.00 0.00 20 1019.5
20260509133847 66 84 1.7 7.8 0.00 0.00 0.00 22 1019.4
20260509132947 66 65 1.7 8.7 0.00 0.00 0.00 21 1019.6
20260509132047 67 332 4.3 7.8 0.00 0.00 0.00 21 1019.7
20260509131147 66 351 0.9 3.5 0.00 0.00 0.00 20 1019.9
20260509125347 65 318 0.0 3.5 0.00 0.00 0.00 24 1020.1
20260509123547 62 292 0.9 4.3 0.00 0.00 0.00 26 1020.2
20260509122647 62 288 1.7 5.2 0.00 0.00 0.00 28 1020.3
20260509121747 61 36 1.7 4.3 0.00 0.00 0.00 29 1020.2
20260509115947 67 327 3.5 6.1 0.00 0.00 0.00 15 1020.2
20260509115047 70 321 0.0 2.6 0.00 0.00 0.00 18 1020.3
20260509113247 69 310 0.9 3.5 0.00 0.00 0.00 19 1020.3